Terug naar catalogus

ATLAS 5 CENTAUR DEB

ActiefHEO
NORAD 43959·DEBRIS·🇺🇸 United States

Gelanceerd Sep 17, 2014 vanaf Cape Canaveral Space Force Station

Loading…

Volgende Passages (komende 24 uur)

TLE

VersSource: Space-Track

Epoch: Sep 6, 2026, 01:20 UTC

1 43959U 14055N   26249.05559419 -.00000152  00000-0  00000+0 0  9994
2 43959  20.1916 129.7165 4999455 187.1790 161.4551  1.81440206 53131

Volg ATLAS 5 CENTAUR DEB in realtime met AllMySat

Download on the App Store